Aérodrome :
LOGIN :

S'inscrire | Disclaimer

   EN    FR    IT 

 










Légende :    VFR   VFR Marginal   IFR   IFR Intensif   IFR Très Intensif
Visi : 
Plafond : 
>= 8 km
>= 3000ft
5 à 8 km
1000 à 3000 ft
1500m à 5 km
500 à 1000 ft
800 à 1500m
200 à 500 ft
< 800m
< 200 ft
Symboles :   Orages  Brouillard  Fortes neiges  Fortes précipitations  Vent > 20 kt
SIGMETs :   Divers  Orages  Givrage  Turbulence  Onde Orograph.  Cendres Volcan.







- Altitude de l'aérodrome : 408 ft
- Code IATA : FKB


EDSB - Karlsruhe Baden Baden

DERNIER METAR :
  • 171650Z 26004KT 220V300 CAVOK 28/16 Q1017

METARs EXPIRÉS :
  • 171620Z 29005KT 240V330 CAVOK 28/16 Q1017
  • 171550Z 27006KT 220V310 CAVOK 28/16 Q1017
  • 171520Z 26005KT 210V300 CAVOK 27/16 Q1017
  • 171450Z 27006KT 220V300 CAVOK 28/16 Q1017
  • 171420Z 25006KT 220V280 CAVOK 28/16 Q1017

TAF TAF EDSB
Valide du 17 à 12h jusqu'au 18 à 12h UTC


171100Z 1712/1812 22008KT 9999 SCT035
BECMG 1717/1720 22003KT
Pas de NOTAMs connus pour ce terrain.



MET'MAP, la Météo Aéronautique d'un coup d'oeil ! - Copyright ORBIFLY Décembre 2007 - Disclaimer

ORBIFLY MET'MAP TEAM :

Programmation & Développement : Alexandra Zaïnal
Conception & Développement : Baudouin d'Aumeries
Co-Programmation & Développement : Marc-Olivier Méhu
Soutien technique & logistique : Manuel Goepfert

Contact : metmap@orbifly.com




SOURCES & CREDITS :

   NOAA